Haines, AK

8:09 PM AKDT on April 26, 2017 (GMT -0800)
Haines

Weather History for PAHN - November, 2010

Change the Weather History Date:

Tuesday, November 16, 2010

  Actual Average Record
Temperature  
Mean Temperature 30 °F -  
Max Temperature 32 °F 36 °F 46 °F (1979)
Min Temperature 28 °F 28 °F 4 °F (1973)
Degree Days  
Heating Degree Days 35    
Moisture  
Dew Point 16 °F    
Average Humidity 57    
Maximum Humidity 75    
Minimum Humidity 40    
Precipitation  
Precipitation 0.00 in - - ()
Sea Level Pressure  
Sea Level Pressure 30.21 in    
Wind  
Wind Speed 13 mph (WNW)    
Max Wind Speed 20 mph    
Max Gust Speed 28 mph    
Visibility 5 miles    
Events      
Averages and records for this station are not official NWS values.
T = Trace of Precipitation, MM = Missing Value Source: NWS Daily Summary

Daily Weather History Graph

Daily Weather History Graph

Search for Another Location

Airport or City:

Trip Planner

Search our weather history database for the weather conditions in past years. The results will help you decide how hot, cold, wet, or windy it might be!

Date:

Astronomy

Nov. 16, 2010 Rise Set
Actual Time 7:58 AM AKST 3:34 PM AKST
Civil Twilight 7:10 AM AKST 4:22 PM AKST
Nautical Twilight 6:19 AM AKST 5:13 PM AKST
Astronomical Twilight 5:31 AM AKST 6:01 PM AKST
Moon 1:39 PM AKST (11/16) 2:05 AM AKST (11/16)
Length of Visible Light 9h 12m
Length of Day
7h 36m
Waxing Gibbous, 78% of the Moon is Illuminated
Nov 16
Waxing Gibbous
Nov 21
Full
Nov 28
Last Quarter
Dec 5
New
Dec 13
First Quarter

Hourly Weather History & Observations

Time (AKST) Temp. Windchill Dew Point Humidity Pressure Visibility Wind Dir Wind Speed Gust Speed Precip Events Conditions
12:54 AM 30.9 °F 21.7 °F 23.0 °F 72% 30.06 in 10.0 mi NW 11.5 mph - N/A   Clear
1:54 AM 30.0 °F 20.5 °F 23.0 °F 75% 30.06 in 10.0 mi NW 11.5 mph - N/A   Mostly Cloudy
2:54 AM 30.9 °F 21.2 °F 23.0 °F 72% 30.07 in 10.0 mi WNW 12.7 mph - N/A   Overcast
3:54 AM 30.0 °F 20.0 °F 23.0 °F 75% 30.08 in 10.0 mi NW 12.7 mph - N/A   Overcast
4:54 AM 30.9 °F 21.7 °F 21.0 °F 67% 30.09 in 10.0 mi NW 11.5 mph - N/A   Overcast
5:54 AM 30.9 °F 21.2 °F 21.9 °F 69% 30.09 in 10.0 mi NW 12.7 mph - N/A   Overcast
6:54 AM 30.9 °F 21.7 °F 21.9 °F 69% 30.10 in 10.0 mi NW 11.5 mph 18.4 mph N/A   Overcast
7:54 AM 30.0 °F 20.0 °F 23.0 °F 75% 30.12 in 10.0 mi WNW 12.7 mph - N/A   Overcast
8:54 AM 30.0 °F 20.0 °F 23.0 °F 75% 30.13 in 10.0 mi NW 12.7 mph - N/A   Overcast
9:54 AM 30.9 °F 22.8 °F 21.9 °F 69% 30.15 in 7.0 mi WNW 9.2 mph - N/A   Overcast
10:44 AM 30.2 °F 19.3 °F 19.4 °F 64% 30.14 in 2.5 mi WNW 15.0 mph - N/A   Haze
10:54 AM 30.9 °F 19.4 °F 19.9 °F 64% 30.15 in 4.0 mi West 17.3 mph 24.2 mph N/A   Haze
11:04 AM 32.0 °F 20.5 °F 19.4 °F 60% 30.15 in 2.0 mi WNW 18.4 mph 24.2 mph N/A   Haze
11:15 AM 32.0 °F 21.6 °F 19.4 °F 60% 30.16 in 1.5 mi WNW 15.0 mph 23.0 mph N/A   Haze
11:38 AM 30.2 °F 18.5 °F 19.4 °F 64% 30.16 in 3.0 mi WNW 17.3 mph - N/A   Haze
11:54 AM 32.0 °F 20.5 °F 19.0 °F 59% 30.17 in 4.0 mi West 18.4 mph - N/A   Haze
12:54 PM 32.0 °F 22.5 °F 18.0 °F 56% 30.19 in 8.0 mi WNW 12.7 mph 25.3 mph N/A   Overcast
1:49 PM 32.0 °F 20.8 °F 15.8 °F 51% 30.19 in 1.8 mi WNW 17.3 mph 24.2 mph N/A   Haze
1:54 PM 32.0 °F 21.2 °F 17.1 °F 54% 30.20 in 1.2 mi WNW 16.1 mph 25.3 mph N/A   Haze
2:06 PM 32.0 °F 20.1 °F 17.6 °F 55% 30.19 in 3.0 mi West 19.6 mph 24.2 mph N/A   Haze
2:13 PM 32.0 °F 20.5 °F 17.6 °F 55% 30.19 in 1.8 mi WNW 18.4 mph 24.2 mph N/A   Haze
2:23 PM 30.2 °F 18.5 °F 17.6 °F 60% 30.20 in 2.5 mi West 17.3 mph 23.0 mph N/A   Haze
2:37 PM 30.2 °F 20.8 °F 15.8 °F 55% 30.21 in 1.5 mi WNW 11.5 mph 25.3 mph N/A   Haze
2:47 PM 30.2 °F 20.2 °F 17.6 °F 60% 30.21 in 2.5 mi West 12.7 mph - N/A   Haze
2:54 PM 30.9 °F 21.2 °F 17.1 °F 57% 30.22 in 4.0 mi WNW 12.7 mph - N/A   Haze
3:15 PM 30.2 °F 19.8 °F 17.6 °F 60% 30.21 in 2.5 mi WNW 13.8 mph 23.0 mph N/A   Haze
3:25 PM 30.2 °F 20.8 °F 17.6 °F 60% 30.22 in 3.0 mi WNW 11.5 mph - N/A   Haze
3:54 PM 30.0 °F 20.0 °F 15.1 °F 54% 30.24 in 9.0 mi WNW 12.7 mph 23.0 mph N/A   Mostly Cloudy
4:21 PM 30.2 °F 23.4 °F 15.8 °F 55% 30.24 in 6.0 mi Variable 6.9 mph 16.1 mph N/A   Haze
4:54 PM 30.0 °F 19.1 °F 15.1 °F 54% 30.25 in 7.0 mi WNW 15.0 mph - N/A   Clear
5:54 PM 28.9 °F 16.9 °F 12.9 °F 51% 30.26 in 8.0 mi West 17.3 mph - N/A   Clear
6:54 PM 28.9 °F 17.3 °F 10.9 °F 47% 30.29 in 7.0 mi West 16.1 mph 27.6 mph N/A   Scattered Clouds
7:25 PM 28.4 °F 18.0 °F 8.6 °F 43% 30.30 in 5.0 mi WNW 12.7 mph 23.0 mph N/A   Haze
7:44 PM 28.4 °F 18.0 °F 8.6 °F 43% 30.31 in 2.5 mi WNW 12.7 mph 23.0 mph N/A   Haze
7:54 PM 28.9 °F 17.7 °F 10.0 °F 45% 30.32 in 3.0 mi WNW 15.0 mph 24.2 mph N/A   Haze
8:03 PM 28.4 °F 19.1 °F 10.4 °F 47% 30.31 in 3.0 mi NW 10.4 mph 24.2 mph N/A   Haze
8:13 PM 28.4 °F 17.5 °F 8.6 °F 43% 30.31 in 5.0 mi WNW 13.8 mph 20.7 mph N/A   Haze
8:54 PM 28.0 °F 18.1 °F 8.1 °F 43% 30.33 in 5.0 mi WNW 11.5 mph 24.2 mph N/A   Haze
9:17 PM 28.4 °F 17.5 °F 8.6 °F 43% 30.33 in 3.0 mi NW 13.8 mph 18.4 mph N/A   Haze
9:24 PM 28.4 °F 18.5 °F 6.8 °F 40% 30.33 in 5.0 mi NW 11.5 mph 18.4 mph N/A   Haze
9:54 PM 28.0 °F 17.5 °F 8.1 °F 43% 30.35 in 6.0 mi NW 12.7 mph 18.4 mph N/A   Haze
10:54 PM 28.0 °F 18.6 °F 7.0 °F 41% 30.37 in 5.0 mi WNW 10.4 mph 20.7 mph N/A   Haze
11:54 PM 28.0 °F 18.1 °F 8.1 °F 43% 30.38 in 9.0 mi WNW 11.5 mph - N/A   Overcast